Location: Unspecified
(52.4292°N, 19.3359°E)
Time: 15:19:52
(UTC+01:00)

A-11 Canister half - Pass Details

Date: 20 October 2025
Orbit: 1526 x 1682 km, 47.3° (Epoch: 13 November)

Event Time Altitude Azimuth Distance (km) Brightness Sun altitude
Exits shadow 03:35:17 57° 174° (S) 1,750 9.0 -33.5°
Maximum altitude 03:35:41 58° 164° (SSE) 1,744 9.0 -33.5°
Drops below altitude 10° 03:44:43 10° 89° (E) 3,702 11.7 -32.3°
Sets 03:47:49 0° 85° (E) 4,693 12.5 -31.8°
